Regional Weather Roundup
Issued by NWS

Home | Current Version | Previous Version | Graphics & Text | Print | Product List | Glossary On
Versions: 1 2 3 4 5 6 7 8 9 10 11 12 13 14 15 16 17 18 19 20 21 22 23 24 25 26 27 28 29 30 31 32 33 34 35 36 37 38 39 40 41 42 43 44 45 46 47 48 49 50
000
ASUS43 KLMK 241610
RWRKY
KENTUCKY REGIONAL WEATHER ROUNDUP
NATIONAL WEATHER SERVICE LOUISVILLE KY
1200 PM EDT TUE APR 24 2018

NOTE "FAIR" INDICATES FEW OR NO CLOUDS BELOW 12,000 FEET
WITH NO SIGNIFICANT WEATHER AND/OR OBSTRUCTIONS TO VISIBILITY.

KYZ001>023-026-027-061>063-070>075-241700-
WESTERN AND SOUTH CENTRAL KENTUCKY

CITY           SKY/WX    TMP DP  RH WIND       PRES   REMARKS
PADUCAH        CLOUDY    62  56  80 NW7       29.96S
HENDERSON      LGT RAIN  56  54  93 NW8       29.96R
OWENSBORO      LGT RAIN  57  55  93 N6        29.94S FOG
HOPKINSVILLE   CLOUDY    59  55  88 NW9       29.95R
BOWLING GREEN  CLOUDY    60  56  86 W8        29.92S
GLASGOW        CLOUDY    57  54  89 CALM      29.91S
$$

KYZ024-025-028>034-038-045-046-053-241700-
NORTH CENTRAL KENTUCKY

CITY           SKY/WX    TMP DP  RH WIND       PRES   REMARKS
LOUISVILLE/SDF LGT RAIN  56  54  93 CALM      29.92S
LOUISVILLE/LOU CLOUDY    56  55  97 E3        29.92F FOG
FORT KNOX      CLOUDY    55  55 100 CALM      29.92
$$

KYZ035>037-039>044-047>052-055>060-089>105-241700-
NORTHEAST KENTUCKY

CITY           SKY/WX    TMP DP  RH WIND       PRES   REMARKS
LEXINGTON      RAIN      55  52  89 E5        29.92F FOG
COVINGTON      LGT RAIN  55  53  93 E9        29.94F
FRANKFORT      LGT RAIN  55  51  86 E6        29.91F FOG
$$

KYZ054-064>069-076>088-106>120-241700-
SOUTHEAST KENTUCKY

CITY           SKY/WX    TMP DP  RH WIND       PRES   REMARKS
JACKSON        CLOUDY    57  53  86 CALM      29.91F
LONDON         LGT RAIN  56  54  93 CALM      29.90S
SOMERSET       CLOUDY    55  55 100 CALM      29.92S
MIDDLESBORO    CLOUDY    57  55  91 CALM      29.90F
MONTICELLO     CLOUDY    57  54  89 N9        29.93S
$$




USA.gov is the U.S. government's official web portal to all federal, state and local government web resources and services.